Starlink 5256

operational
NORAD ID: 54175 Int'l Des: 2022-141 Owner: SPXS Country: US Constellation: starlink
LEOCIRCULAR

关于 Starlink 5256

正在加载描述...

实时位置

正在加载3D地球...

即将过境

高度历史

Altitude vs Time

uPlot chart will show altitude changes over time

两行轨道根数

1 54175U 22141U 25305.09258087 -.00000861 00000-0 -36020-4 0 9998
2 54175 53.2172 221.4285 0001799 67.9514 292.1669 15.08831818166445
Epoch: Nov 1, 2025 • Age: 25 hours

当前状态

高度 540.0 km
速度 7.59 km/s
星下点 15.74°N, 58.53°W
发射日期 Oct 28, 2022
运行时间 3 years
类型 internet

技术详情

分类 Payload
质量 305.00 kg
干质量 290.00 kg
总质量 305.00 kg
长度 0.20 m
直径 2.80 m
跨度 9.00 m
形状 Box + pan
制造商 SPXS
平台类型 Starlink
阶段状态 In Orbit
所有者/国家 SPXS/US

大型星座

Loading constellations...